www.pogodaiklimat.ru

Погода и климат >> Архив погоды >> Россия >> Якутия >> Хабардино


ПОГОДА в Хабардино

  • Прогноз погоды в Хабардино
  • Монитор погоды в Хабардино

АРХИВ ПОГОДЫ в Хабардино

Время (UTC), дата Ветер
(напр.,м/с)
 
Видим.   Явления Облачность Т
(С)
Тd
(С)
f
(%)
Тe
(С)
Тes
(С)
Комфортность P
(гПа)
Po
(гПа)
Тmin
(С)
Tmax
(С)
R
(мм)
R24
(мм)
S
(см)
03 13.06 ЮВ 1 50 км 3/0
[Ac trans]
+12.2 +1.1 47 +13 +24 опасность
простуды
1012.7 982.8
06 13.06 Ю 1 50 км 8/8 600 м
[Cu med, cong]
+15.1 +0.7 37 +16 +19 1011.7 982.2
09 13.06 ЮВ 1 50 км 6/6 600 м
[Cu med, cong]
+17.2 +1.5 35 +18 +21 1010.6 981.3
12 13.06 Ю 2 50 км 8/3 1000 м
[Sc Ac trans Ci fib]
+16.0 +2.8 41 +16 +17 1010.4 981.0 +17.9
15 13.06 Ю 2 50 км 8/5 1000 м
[Sc Ci fib]
+12.8 +4.0 55 +12 +12 1011.3 981.6
18 13.06 СЗ 1 50 км 10/5 1000 м
[Sc Ci fib]
+10.5 +4.0 64 +10 +10 1011.5 981.5
21 13.06 ЮЗ 2 50 км 3/0
[Ac trans]
+10.1 +4.3 67 +9 +10 1011.3 981.3
00 14.06 Ю 3 50 км 3/0
[Ci fib]
+14.4 +7.1 62 +14 +18 1010.6 981.1 +8.4
03 14.06 Ю 4 50 км 8/0
[Ac trans Ci fib]
+17.2 +5.4 46 +17 +22 1008.6 979.4
06 14.06 Ю 4 50 км 8/3 1000 м
[Sc Ac trans Ci fib]
+21.0 +6.4 39 +22 +26 комфорт 1007.0 978.2
09 14.06 Ю 4 50 км 3/0
[Ci fib]
+23.0 +7.3 36 +24 +28 комфорт 1004.0 975.5
12 14.06 Ю 3 50 км ясно +23.0 +7.6 37 +24 +25 комфорт 1003.7 975.2 +23.8
15 14.06 ЮВ 2 50 км 3/0
[Ci fib]
+17.9 +7.9 52 +18 +18 974.8
18 14.06 штиль 0 50 км 3/0
[Ci fib]
+15.3 +10.2 72 +15 +15 1004.2 975.0
21 14.06 ЮВ 2 50 км 3/0
[Ci fib]
+15.0 +7.8 62 +15 +16 1002.6 973.4
00 15.06 ЮЗ 1 50 км 8/5 600 м
[Cb cap Ci fib]
+19.7 +9.4 51 +22 +25 комфорт 1002.6 973.8 +11.8
03 15.06 Ю 3 50 км 3/3 600 м
[Cu hum]
+24.9 +10.4 40 +26 +33 жарко 1001.0 972.8
06 15.06 Ю 4 50 км 6/3 600 м
[Cu med, cong Ac trans Ci fib]
+27.3 +11.2 37 +28 +33 жарко 1000.2 972.2
09 15.06 ЮЗ 3 50 км 10/5 600 м
[Cu med, cong Ac trans Ci fib]
+28.7 +11.6 35 +30 +31 жарко 999.5 971.6
12 15.06 СВ 3 50 км в посл. час ливневой дождь 8/8 600 м
[Cb cap]
+21.0 +15.7 72 +25 +25 комфорт 1000.7 972.2 +29.1 1
15 15.06 штиль 0 50 км 9/9 600 м
[Cb cap]
+18.8 +15.4 81 +20 +20 1001.4 972.7
18 15.06 штиль 0 50 км 9/9 600 м
[Cb cap]
+14.1 +11.7 85 +14 +14 1002.7 974.4
21 15.06 штиль 0 50 км 8/8 1000 м
[Sc]
+13.0 +11.7 92 +12 +13 1003.6 974.2
00 16.06 штиль 0 50 км 8/5 600 м
[Cu med, cong Ci fib]
+19.8 +14.7 72 +22 +25 комфорт 1004.2 975.5 +12.4
03 16.06 СЗ 2 50 км 8/5 600 м
[Cu Sc Ac trans Ci fib]
+24.1 +15.1 57 +27 +31 жарко 1004.5 976.2
06 16.06 СЗ 3 50 км 6/3 600 м
[Cu med, cong Ci fib]
+25.9 +15.6 53 +29 +35 душно 1005.2 977.0
09 16.06 С 3 50 км 3/3 1000 м
[Sc]
+26.1 +14.4 48 +28 +32 жарко 1006.3 978.1
12 16.06 СВ 2 50 км 4/0
[Ac trans Ci fib]
+24.3 +14.4 54 +27 +28 жарко 1007.6 979.2 +27.1
15 16.06 СВ 1 50 км 3/0
[Ci fib]
+19.0 +12.8 67 +21 +21 комфорт 1009.5 980.5
18 16.06 ЮЗ 1 50 км 3/0
[Ci fib]
+9.8 +8.6 92 +9 +9 1011.7 981.7
21 16.06 штиль 0 50 км 3/0
[Ac trans]
+9.3 +8.3 93 +8 +10 1011.8 981.8
00 17.06 В 2 50 км 3/0
[Ci fib]
+18.2 +13.6 75 +19 +24 1011.3 982.2 +8.4
03 17.06 В 2 50 км 4/0
[Ci fib]
+24.4 +13.9 52 +27 +37 жарко 1009.5 981.0
06 17.06 Ю 3 50 км 3/0
[Ci fib]
+29.7 +11.2 32 +30 +39 жарко 1007.1 979.1
09 17.06 ЮВ 3 50 км 3/0
[Ci fib]
+30.4 +9.2 27 +30 +34 жарко 1005.9 978.0
12 17.06 ЮВ 3 50 км 3/0
[Ci fib]
+29.0 +9.1 29 +29 +30 жарко 1005.0 977.0 +30.6
15 17.06 ЮЗ 1 50 км 4/0
[Ci fib]
+18.9 +8.8 52 +21 +21 комфорт 1007.5 978.5
18 17.06 ЮВ 2 50 км 4/0
[Ci fib]
+16.7 +7.1 53 +17 +17 1006.5 977.3
21 17.06 Ю 1 50 км 8/8 1000 м
[Sc]
+19.2 +8.7 51 +21 +21 комфорт 1005.8 976.8
00 18.06 В 3 50 км 8/5 600 м
[Cb cap Ac trans Ci fib]
+20.8 +10.3 51 +23 +25 комфорт 1003.8 975.1 +15.9
03 18.06 ЮЗ 1 20 км гроза, ливневой дождь 10/10 600 м
[Cb cap]
+17.0 +15.5 91 +18 +18 1006.1 977.0
06 18.06 З 2 50 км {гроза, ливн. осадки} 9/9 600 м
[Cb cap]
+19.1 +16.4 84 +21 +22 комфорт 1005.0 976.2
09 18.06 СЗ 1 50 км 9/9 1000 м
[Sc]
+20.8 +16.2 75 +25 +26 комфорт 1004.7 1076.1
12 18.06 ЮЗ 1 50 км 8/8 600 м
[Cb cap]
+20.1 +16.3 79 +24 +24 комфорт 1005.3 976.5 +22.1 4
15 18.06 З 2 50 км 8/8 600 м
[Cb cap]
+18.3 +14.9 81 +19 +19 1006.6 977.6
18 18.06 З 1 50 км 8/8 1000 м
[Sc]
+16.1 +13.4 84 +17 +17 1008.5 979.3
21 18.06 З 1 50 км 3/3 1000 м
[Sc]
+13.9 +10.3 79 +14 +15 1010.2 980.6
00 19.06 СЗ 3 50 км ясно +16.7 +8.1 57 +17 +21 1012.0 982.6 +13.7
03 19.06 СЗ 3 50 км 1/1 1000 м
[Cu hum]
+19.7 +6.1 41 +21 +29 комфорт 1012.9 983.8
06 19.06 СЗ 3 50 км ясно +22.0 +6.3 36 +23 +32 комфорт 1012.0 983.1
09 19.06 СЗ 3 50 км 4/0
[Ci fib]
+23.6 +5.4 31 +24 +28 комфорт 1011.5 982.8
12 19.06 СЗ 2 50 км 6/0
[Ac trans Ci fib]
+23.1 +5.8 33 +24 +24 комфорт 1011.9 983.1 +23.9
15 19.06 ЮЗ 1 50 км 3/0
[Ci sp]
+12.5 +6.2 65 +13 +13 1012.9 983.1
18 19.06 ЮЗ 1 50 км ясно +4.0 +1.7 85 +3 +3 1015.5 984.7
21 19.06 штиль 0 50 км ясно +4.5 +3.8 95 +3 +5 1015.6 984.8
00 20.06 штиль 0 50 км ясно +14.2 +7.1 62 +14 +22 1014.5 984.8 +1.8

 

Местоположение метеостанции Хабардино (Якутия, Россия): широта 64.60 долгота 112.50 высота над уровнем моря 251 м.

В архиве по умолчанию представлена погода в Хабардино за последнюю неделю. Архивные данные за месяц целиком и за предыдущие месяцы, начиная с января 2011 года, Вы можете получить, выбрав интересующий диапазон дат из раскрывающегося списка и нажав кнопку "Ввод!".


*Определитесь, кто Вы:
робот инопланетянин человек

Внимание! Время в таблицах - всемирное. Для получения местного времени необходимо прибавить поправку, которая равна 9 ч.

Смотрите также архив погоды в соседних городах и на ближайших метеорологических станциях:

Погода в Айхале (Якутия, Россия) (156 км)
Погода в Чернышевском (Якутия, Россия) (175 км)
Погода в Шелагонцах (Якутия, Россия) (200 км)
Погода в Чумпуруке (Якутия, Россия) (215 км)
Погода в Полярном (Якутия, Россия) (237 км)
Погода в Туой-Хае (Якутия, Россия) (239 км)
Погода в Мирном (Якутия, Россия) (239 км)
Погода в Эйке (Якутия, Россия) (278 км)
Погода в Крестяхе (Якутия, Россия) (315 км)
Погода в Нюрбе (Якутия, Россия) (319 км)

Пояснения к столбцам:

Ветер - указаны скорость ветра в м/с - средняя за 10 мин, порывы в срок и между сроками (в фигурных скобках) и направление, откуда дует ветер: С - северный, СВ - северо-восточный, В - восточный, ЮВ - юго-восточный, Ю - южный, ЮЗ - юго-западный, З - западный, СЗ - северо-западный.
Видимость - горизонтальная дальность видимости в метрах или километрах. При видимости от 1 до 10 км при отсутствии осадков обычно наблюдается дымка, при ухудшении видимости до 1 км и менее - туман. В сухую погоду видимость может ухудшаться дымом, пылью или мглою.
Явления - указаны атмосферные явления, наблюдавшиеся в срок или в последний час перед сроком; фигурными скобками обозначены явления, наблюдавшиеся между сроками (за 1-3 часа до срока); квадратными скобками обозначены град или гололедные отложения с указанием их диаметра в мм.
Облачность - указаны через наклонную черту общая и нижняя облачность в баллах и высота нижней границы облаков в метрах; квадратными скобками обозначены формы облаков: Ci - перистые, Cs - перисто-слоистые, Cc - перисто-кучевые, Ac - высококучевые, As - высокослоистые, Sc - слоисто-кучевые, Ns - слоисто-дождевые, Cu - кучевые, Cb - кучево-дождевые. Подробнее классификацию облаков см. в Атласе облаков (PDF).
T - Температура воздуха - температура, измеренная на высоте 2 м над землей.
Td - Температура точки росы - температура, при понижении до которой содержащийся в воздухе водяной пар достигнет насыщения.
f - Относительная влажность воздуха - влажноcть воздуха, измеренная на высоте 2 м над землей.
Te - Эффективная температура - температура, которую ощущает одетый по сезону человек в тени. Характеристика душности погоды. При расчете учитывается влияние влажности воздуха и скорости ветра на теплоощущения человека.
Tes - Эффективная температура на солнце - температура, которую ощущает человек, с поправкой на солнечный нагрев. Характеристика знойности погоды. Зависит от высоты солнца над горизонтом, облачности и скорости ветра. Ночью, в пасмурную погоду, а также при ветре 12 м/с и более поправка равна нулю.
P - Атмосферное давление - приведенное к уровню моря атмосферное давление.
Po - Атмосферное давление - измеренное на уровне метеостанции атмосферное давление.
Tmin - Минимальная температура - минимум температуры воздуха на высоте 2 м над землей.
Tmax - Максимальная температура - максимум температуры воздуха на высоте 2 м над землей.
R - Количество осадков - Количество выпавших осадков за период времени, мм. При наведении курсора мыши на число - период времени, за который выпало указанное количество осадков.
R24 - Количество осадков - Количество выпавших осадков за 24 часа, мм.
S - Снежный покров - Высота снежного покрова, см. При наведении курсора мыши на число - состояние снежного покрова и степень покрытия местности в баллах.